Regional Weather Roundup
Issued by NWS

Home | Current Version | Previous Version | Graphics & Text | Print | Product List | Glossary On
Versions: 1 2 3 4 5 6 7 8 9 10 11 12 13 14 15 16 17 18 19 20 21 22 23 24 25 26 27 28 29 30 31 32 33 34 35 36 37 38 39 40 41 42 43 44 45 46 47 48 49 50
368
ASUS43 KIND 091559
RWRIN

WEATHER ROUNDUP FOR INDIANA
NATIONAL WEATHER SERVICE INDIANAPOLIS IN
1100 AM EST TUE FEB 09 2016

NOTE: "FAIR" INDICATES FEW OR NO CLOUDS BELOW 12,000 FEET WITH NO
SIGNIFICANT WEATHER AND/OR OBSTRUCTIONS TO VISIBILITY.

* - STATION DOES NOT REPORT WEATHER SUCH AS PRECIPITATION OR FOG.

+ - STATION NOT QUALITY CONTROLLED BY THE NATIONAL WEATHER SERVICE.
    USE DATA WITH CAUTION...ESPECIALLY DEWPOINT AND RELATIVE
    HUMIDITY OBSERVATIONS.

INZ001>003-010>013-019-020-091700-
NORTHWEST INDIANA

CITY           SKY/WX    TMP DP  RH WIND       PRES   REMARKS
GARY /AIRPORT/ LGT SNOW  21  12  68 NW14      29.82R WCI   8
RENSSELAER +   LGT SNOW  21  14  73 W13G18    29.81R WCI   9

$$

LMZ046-743>745-091700-
SOUTHERN LAKE MICHIGAN

STATION/POSITION TIME  TEMP    WIND        PRES    WAVE
                       AIR SEA DIR/SP/G            HT
                 (UTC) (F)     (DEG/KT/KT) (MB)    (FT)
BURNS HARBOR     1521   21     320/ 19/ 25 1009.1R
MICHIGAN CITY    1500   24     290/ 22/ 24   N/A

$$

INZ004-005-014>016-021>024-091700-
NORTH CENTRAL INDIANA

CITY           SKY/WX    TMP DP  RH WIND       PRES   REMARKS
ELKHART        CLOUDY    27  21  80 NW9G20    29.72R WCI  17
GOSHEN         FLURRIES  28  22  78 NW15      29.69R WCI  16
SOUTH BEND     LGT SNOW  25  20  81 NW16      29.73R WCI  12

$$

INZ006>009-017-018-025>027-091700-
NORTHEAST INDIANA

CITY           SKY/WX    TMP DP  RH WIND       PRES   REMARKS
ANGOLA *+      CLOUDY    27  21  80 NW13      29.64S WCI  16
FORT WAYNE     LGT SNOW  27  20  75 W14G22    29.70R WCI  16

$$

INZ028-029-035-036-043>045-051>053-091700-
WEST CENTRAL INDIANA

CITY           SKY/WX    TMP DP  RH WIND       PRES   REMARKS
GREENCASTLE +  LGT SNOW  21  12  68 W7        29.82R WCI  13
LAFAYETTE      LGT SNOW  21  16  81 W13       29.81R WCI   9
TERRE HAUTE    FLURRIES  20  13  74 NW15      29.86R WCI   6

$$

INZ030>032-037>040-046>048-054>057-064-065-091700-
CENTRAL INDIANA

CITY           SKY/WX    TMP DP  RH WIND       PRES   REMARKS
ANDERSON       LGT SNOW  21  18  86 S12       29.76R WCI   9
GREENWOOD *+   CLOUDY    21  18  86 W14G22    29.80R WCI   8
INDIANAPOLIS   LGT SNOW  21  14  74 W14       29.79R WCI   8
-EAGLE CREEK   FLURRIES  21  15  78 NW14      29.78S WCI   8
KOKOMO *+      CLOUDY    21  16  79 W20       29.75R WCI   6
MT COMFORT *+  CLOUDY    21  16  79 W14       29.78R WCI   8
SHELBYVILLE    LGT SNOW  22  16  78 W16       29.78R WCI   8

$$

INZ033-034-041-042-049-050-058-059-091700-
EAST CENTRAL INDIANA

CITY           SKY/WX    TMP DP  RH WIND       PRES   REMARKS
MUNCIE         CLOUDY    23  17  78 W17       29.73S WCI   9

$$

INZ060-061-067>069-081>083-085>088-091700-
SOUTHWEST INDIANA

CITY           SKY/WX    TMP DP  RH WIND       PRES   REMARKS
EVANSVILLE     LGT SNOW  24  14  65 W10G16    29.92R WCI  14
HUNTINGBURG *+ CLOUDY    21  14  73 NW13      29.89S WCI   9

$$

INZ062-063-066-070>080-084-089>092-091700-
SOUTH CENTRAL AND SOUTHEAST INDIANA

CITY           SKY/WX    TMP DP  RH WIND       PRES   REMARKS
BLOOMINGTON    FLURRIES  21  14  74 W12G17    29.82R WCI   9
MADISON *+     CLOUDY    23  18  80 SW12      29.83S WCI  12
SEYMOUR +      FLURRIES  25  18  74 W16       29.83S WCI  12

$$





USA.gov is the U.S. government's official web portal to all federal, state and local government web resources and services.